DateTimeUTC,F1_A11,F1_S11,BsB_S11,BsG_S11,BsR_S11,BbsB_S11,BbsG_S11,BbsR_S11,BaB_A11,BaG_A11,BaR_A11,Tu_S11,T_S11,Uu_S11,U_S11,P_S11,T1_A11
2021-07-22T21:00:00Z,00000200,20000000,,,,,,,0000.12,0000.36,-000.02,19.4,26.2,07.7,05.1,0666.6,31.1
2021-07-22T21:01:00Z,00000200,20000000,,,,,,,-000.03,0000.02,-000.20,19.4,26.2,07.6,05.0,0666.6,31.1
2021-07-22T21:02:00Z,00000200,20000000,,,,,,,0000.17,-000.03,0000.41,19.4,26.2,07.6,05.0,0666.6,31.2
2021-07-22T21:03:00Z,00000200,60000000,,,,,,,0000.73,0000.57,0000.43,19.4,26.2,07.6,05.0,0666.6,31.1
2021-07-22T21:04:00Z,00000200,40000000,0002.52,0001.52,0001.26,0001.00,0000.57,0000.33,0000.43,0000.63,0000.60,19.5,26.0,07.9,05.3,0667.5,31.2
2021-07-22T21:05:00Z,00000200,00000000,0002.31,0001.45,0001.31,0000.20,0000.42,0000.61,0000.57,0000.30,0000.30,19.5,26.0,07.9,05.4,0667.5,31.1
2021-07-22T21:06:00Z,00000200,00000000,0002.56,0001.19,0001.24,0000.61,0000.47,0000.39,0000.42,0000.47,0000.16,19.5,26.0,08.0,05.4,0667.5,31.1
2021-07-22T21:07:00Z,00000200,00000000,0001.76,0001.44,0001.13,0000.20,0000.14,0000.43,0000.63,0000.48,0000.57,19.5,26.0,08.0,05.4,0667.5,31.1
2021-07-22T21:08:00Z,00000200,00000000,0002.47,0001.35,0000.96,0000.05,0000.33,0000.13,0000.73,0000.79,0000.60,19.5,25.9,08.1,05.5,0667.4,31.1
2021-07-22T21:09:00Z,00000200,00000000,0002.73,0001.51,0000.86,0000.80,0000.33,-000.24,0000.47,0000.10,0000.05,19.5,25.9,08.1,05.5,0667.4,31.1
2021-07-22T21:10:00Z,00000200,00000000,0002.28,0001.65,0000.98,0000.39,0000.11,0000.28,0000.51,0000.80,0000.79,19.5,25.9,08.1,05.4,0667.4,31.1
2021-07-22T21:11:00Z,00000200,00000000,0002.35,0001.69,0001.39,0000.07,0000.18,0000.05,0000.48,0000.10,-000.12,19.5,25.9,08.1,05.5,0667.4,31.1
2021-07-22T21:12:00Z,00000200,00000000,0001.91,0001.52,0000.47,0000.39,0000.44,-000.05,0000.27,0000.66,0000.42,19.5,25.9,08.1,05.5,0667.4,31.1
2021-07-22T21:13:00Z,00000200,00000000,0002.23,0001.46,0000.52,0000.42,0000.18,-000.14,0000.89,0000.63,0000.58,19.5,25.9,08.1,05.5,0667.4,31.1
2021-07-22T21:14:00Z,00000200,00000000,0003.15,0001.49,0001.14,0000.63,0000.45,0000.18,0000.46,0000.24,0000.36,19.5,25.9,08.2,05.5,0667.4,31.1
2021-07-22T21:15:00Z,00000200,00000000,0002.75,0001.57,0001.26,0000.66,0000.28,0000.16,0000.44,0000.85,0000.39,19.5,25.9,08.2,05.6,0667.4,31.1
2021-07-22T21:16:00Z,00000200,00000000,0002.44,0001.72,0000.89,0000.19,0000.31,0000.52,0000.46,0000.27,0000.56,19.5,25.9,08.2,05.6,0667.4,31.1
2021-07-22T21:17:00Z,00000200,00000000,0002.87,0001.31,0000.75,0000.64,-000.01,0000.19,0000.53,0000.78,0000.48,19.5,25.9,08.3,05.6,0667.4,31.1
2021-07-22T21:18:00Z,00000200,00000000,0002.37,0000.96,0000.94,0000.27,0000.36,0000.14,0000.76,0000.48,0000.17,19.5,25.9,08.3,05.7,0667.3,31.1
2021-07-22T21:19:00Z,00000200,00000000,0002.06,0001.47,0000.75,0000.05,0000.26,0000.17,0000.36,0000.51,0000.58,19.5,25.9,08.4,05.7,0667.3,31.1
2021-07-22T21:20:00Z,00000200,00000000,0002.07,0001.31,0000.75,0000.43,0000.53,0000.11,0000.56,0000.19,-000.02,19.5,25.9,08.3,05.6,0667.3,31.1
2021-07-22T21:21:00Z,00000200,00000000,0002.35,0001.48,0000.86,0000.17,0000.32,0000.26,0000.50,0000.54,0000.63,19.4,25.8,08.5,05.7,0667.3,31.2
2021-07-22T21:22:00Z,00000200,00000000,0002.51,0001.26,0000.66,0000.31,0000.35,-000.10,0000.36,0000.27,0000.27,19.4,25.9,08.4,05.7,0667.3,31.1
2021-07-22T21:23:00Z,00000200,00000000,0002.25,0001.41,0000.62,0000.20,0000.14,0000.01,0000.67,0000.95,0000.51,19.5,25.9,08.4,05.7,0667.2,31.1
2021-07-22T21:24:00Z,00000200,00000000,0002.26,0001.27,0001.18,0000.75,0000.31,0000.29,0000.60,0000.27,0000.23,19.4,25.8,08.5,05.7,0667.2,31.1
2021-07-22T21:25:00Z,00000200,00000000,0002.96,0001.30,0001.04,0000.99,0000.23,0000.24,0000.53,0000.33,0000.27,19.4,25.8,08.5,05.7,0667.2,31.1
2021-07-22T21:26:00Z,00000200,00000000,0001.97,0001.19,0000.79,0000.79,0000.02,0000.15,-000.18,0000.44,0000.32,19.4,25.8,08.5,05.8,0667.2,31.1
2021-07-22T21:27:00Z,00000200,00000000,0002.29,0001.41,0000.80,0000.46,0000.17,-000.14,0000.98,0000.47,0000.73,19.4,25.8,08.6,05.8,0667.2,31.2
2021-07-22T21:28:00Z,00000200,00000000,0001.86,0001.17,0000.68,0000.27,0000.17,-000.05,0000.52,0000.60,0000.33,19.4,25.8,08.6,05.8,0667.2,31.1
2021-07-22T21:29:00Z,00000200,00000000,0001.59,0001.27,0000.59,-000.20,0000.22,0000.18,0000.44,0000.17,0000.20,19.4,25.8,08.6,05.8,0667.2,31.1
2021-07-22T21:30:00Z,00000200,00000000,0001.64,0001.11,0000.87,-000.32,0000.33,-000.16,0000.76,0000.79,0000.37,19.4,25.8,08.7,05.9,0667.2,31.1
2021-07-22T21:31:00Z,00000200,00000000,0002.25,0001.33,0000.75,0000.61,0000.41,0000.20,-000.01,0000.07,0000.26,19.4,25.8,08.7,05.9,0667.2,31.1
2021-07-22T21:32:00Z,00000200,00000000,0001.85,0001.08,0000.99,0000.44,0000.09,0000.51,0000.61,0000.67,0000.67,19.4,25.8,08.7,05.9,0667.2,31.2
2021-07-22T21:33:00Z,00000200,00000000,0002.08,0001.33,0000.87,0000.54,0000.47,-000.05,0000.88,0000.17,-000.03,19.4,25.8,08.8,05.9,0667.2,31.2
2021-07-22T21:34:00Z,00000200,00000000,0001.42,0001.51,0001.07,-000.22,-000.05,0000.12,-000.19,0000.21,0000.35,19.4,25.8,08.8,06.0,0667.2,31.1
2021-07-22T21:35:00Z,00000200,00000000,0001.68,0001.01,0000.74,0000.54,0000.43,-000.01,0000.77,0000.42,0000.51,19.4,25.8,08.7,05.9,0667.1,31.1
2021-07-22T21:36:00Z,00000200,00000000,0002.57,0001.42,0000.89,0000.78,0000.16,0000.38,0000.26,0000.90,0000.59,19.4,25.8,08.7,05.9,0667.2,31.1
2021-07-22T21:37:00Z,00000200,00000000,0002.04,0001.56,0000.82,0000.08,0000.46,0000.12,0000.58,0000.41,0000.17,19.4,25.8,08.6,05.8,0667.1,31.1
2021-07-22T21:38:00Z,00000200,00000000,0001.81,0001.28,0000.92,0000.05,0000.74,0000.17,0000.24,-000.06,0000.07,19.4,25.8,08.7,05.9,0667.2,31.1
2021-07-22T21:39:00Z,00000200,00000000,0002.01,0001.77,0000.97,0000.58,-000.01,-000.08,0000.70,0000.85,0000.47,19.3,25.8,08.7,05.9,0667.2,31.1
2021-07-22T21:40:00Z,00000200,00000000,0002.31,0001.73,0001.28,0000.35,0000.53,0000.47,0000.53,0000.27,0000.50,19.3,25.7,08.6,05.8,0667.2,31.1
2021-07-22T21:41:00Z,00000200,00000000,0001.87,0001.19,0001.40,-000.58,0000.33,0000.26,0000.43,0000.59,0000.22,19.3,25.7,08.7,05.9,0667.2,31.1
2021-07-22T21:42:00Z,00000200,00000000,0002.63,0001.24,0000.77,0000.45,0000.42,-000.22,0000.82,0000.46,0000.33,19.3,25.7,08.5,05.8,0667.2,31.1
2021-07-22T21:43:00Z,00000200,00000000,0002.04,0001.48,0001.05,0000.18,0000.51,0000.35,0000.27,0000.36,0000.45,19.3,25.7,08.7,05.9,0667.2,31.1
2021-07-22T21:44:00Z,00000200,00000000,0002.61,0001.46,0000.81,0000.32,0000.53,0000.00,0000.30,0000.44,0000.48,19.3,25.7,08.6,05.8,0667.2,31.1
2021-07-22T21:45:00Z,00000200,00000000,0002.99,0001.24,0000.93,0000.31,0000.48,0000.46,0000.65,0000.69,0000.28,19.4,25.7,08.6,05.9,0667.1,31.1
2021-07-22T21:46:00Z,00000200,00000000,0001.69,0001.27,0000.69,0000.85,0000.21,0000.11,0000.37,0000.38,0000.60,19.5,25.8,08.6,05.9,0667.2,31.2
2021-07-22T21:47:00Z,00000200,00000000,0002.41,0001.17,0000.65,0000.16,0000.41,0000.04,0000.98,0000.70,0000.07,19.5,25.8,08.6,05.9,0667.2,31.2
2021-07-22T21:48:00Z,00000200,00000000,0002.31,0001.70,0000.82,0000.31,0000.25,0000.33,0000.20,0000.32,0000.53,19.6,25.9,08.5,05.8,0667.1,31.2
2021-07-22T21:49:00Z,00000200,00000000,0002.67,0001.55,0001.11,0000.51,0000.34,0000.04,0000.40,0000.36,0000.28,19.6,25.8,08.5,05.8,0667.1,31.2
2021-07-22T21:50:00Z,00000200,00000000,0002.22,0001.28,0000.75,-000.42,0000.15,0000.13,0000.56,0000.51,0000.14,19.6,25.9,08.5,05.8,0667.1,31.1
2021-07-22T21:51:00Z,00000200,00000000,0002.34,0001.40,0001.29,0000.33,0000.58,0000.34,0000.62,0000.26,0000.47,19.6,25.8,08.4,05.8,0667.1,31.1
2021-07-22T21:52:00Z,00000200,00000000,0002.31,0001.23,0000.94,0000.11,0000.05,0000.23,0000.41,0000.69,0000.61,19.5,25.8,08.5,05.8,0667.1,31.1
2021-07-22T21:53:00Z,00000200,00000000,0001.34,0001.26,0001.07,0000.74,0000.17,0000.23,0000.01,0000.42,0000.06,19.5,25.8,08.5,05.8,0667.1,31.2
2021-07-22T21:54:00Z,00000200,00000000,0002.28,0001.06,0001.19,0000.53,0000.32,0000.40,0000.76,0000.32,0000.23,19.5,25.8,08.5,05.8,0667.1,31.2
2021-07-22T21:55:00Z,00000200,00000000,0002.35,0001.43,0001.22,0000.46,0000.44,0000.21,0000.43,0000.42,0000.47,19.5,25.8,08.6,05.9,0667.1,31.1
2021-07-22T21:56:00Z,00000200,00000000,0002.14,0001.19,0000.95,0000.10,0000.29,0000.07,0000.56,0000.27,0000.22,19.5,25.8,08.6,05.8,0667.1,31.1
2021-07-22T21:57:00Z,00000200,40000000,,,,,,,-000.47,-000.09,0000.00,19.5,25.8,08.4,05.7,0667.1,31.1
2021-07-22T21:58:00Z,00000200,60000000,,,,,,,0000.24,-000.12,-000.13,19.2,25.9,08.3,05.5,0666.1,31.1
2021-07-22T21:59:00Z,00000200,20000000,,,,,,,-000.53,-000.34,-000.23,19.2,26.0,08.3,05.5,0666.1,31.1
